Wetbulb
64.63 63.35 63.98 65.05 64.62 64.15 63.80 64.46 67.40 67.00 67.97 68.35 68.14 67.41 68.77 66.71 65.39 67.47 64.65 65.53 65.57 62.46
60.88 61.08 61.24 62.13 62.58 62.63 64.75 64.28 65.37 65.72 65.79 66.35 67.25 67.93 69.32 65.91 67.17 66.64 66.61 66.26 66.25 64.00
59.07 59.44 59.60 59.67 59.66 60.38 60.86 61.22 61.87 62.78 64.47 65.43 66.13 66.82 68.34 66.81 67.22 66.66 64.56 63.67 65.39 65.80
57.33 57.72 58.11 57.88 58.41 58.82 59.37 59.48 59.21 59.35 59.62 60.20 62.12 64.95 66.64 65.97 65.46 64.75 65.00 65.18 63.74 64.01
56.34 56.48 56.59 56.84 57.23 57.68 57.23 57.67 57.62 57.52 57.59 57.64 58.15 59.82 60.44 62.33 63.81 63.75 63.85 63.66 63.18 62.04
54.90 54.88 55.17 55.49 55.99 55.87 55.82 55.84 56.22 56.14 55.80 56.03 56.58 56.93 57.90 58.04 58.74 60.80 62.95 63.52 63.14 62.71
53.63 54.09 54.10 54.54 54.48 54.46 54.81 54.54 54.61 54.68 54.67 54.83 55.27 55.60 55.83 56.02 56.29 58.17 58.41 60.93 62.24 62.09
53.00 53.27 53.32 53.18 53.45 53.28 53.02 53.04 52.99 52.75 52.95 53.22 53.16 53.21 53.80 54.45 54.11 54.59 55.10 57.44 57.76 60.10
51.57 51.84 51.51 51.42 51.19 50.46 49.81 49.88 49.59 49.33 49.58 49.27 50.30 47.25 46.61 48.78 50.06 51.04 50.91 51.26 53.11 55.07
49.92 48.74 48.21 47.68 47.18 46.31 46.73 47.22 46.32 46.41 47.05 47.04 48.25 44.94 44.11 45.43 49.26 49.79 49.99 50.93 51.25 52.96
46.12 45.15 45.32 45.19 45.65 45.68 45.42 44.64 44.15 44.37 44.56 45.06 45.60 43.50 42.59 43.48 48.01 49.58 49.30 51.41 51.96 53.32
44.09 44.07 44.58 44.69 45.51 45.67 44.57 43.58 43.94 44.18 44.32 44.17 44.66 42.50 41.98 43.70 47.18 47.82 48.22 51.02 51.59 52.33
46.02 45.43 44.71 45.03 44.70 45.45 45.56 43.87 43.72 43.43 44.62 44.61 44.82 43.31 41.71 43.05 46.08 48.32 48.39 51.48 52.60 49.83
46.02 44.71 44.48 44.58 45.52 45.72 45.05 44.92 45.04 44.31 45.15 46.03 46.34 46.76 42.21 42.13 47.93 47.86 48.10 49.92 53.07 53.45
MSLP
1009.15 1008.72 1008.91 1008.95 1009.38 1009.30 1008.97 1008.95 1009.11 1009.34 1009.41 1009.48 1009.34 1009.30 1009.27 1009.10 1009.11 1008.93 1008.91 1008.94 1008.67 1008.28
1009.81 1009.95 1009.99 1010.11 1010.17 1009.70 1009.69 1009.41 1009.38 1009.34 1009.33 1009.18 1008.93 1008.74 1008.61 1008.47 1008.32 1008.28 1008.14 1007.99 1007.91 1007.76
1010.22 1010.22 1010.30 1010.22 1010.28 1010.40 1010.09 1009.83 1009.71 1009.40 1009.18 1008.81 1008.48 1008.29 1008.10 1007.70 1007.52 1007.34 1007.26 1006.92 1006.77 1006.77
1010.38 1010.35 1010.46 1010.44 1010.47 1010.17 1009.84 1009.82 1009.57 1009.17 1008.81 1008.39 1007.92 1007.62 1007.30 1007.00 1006.77 1006.33 1006.15 1006.17 1006.07 1005.78
1010.62 1010.47 1010.47 1010.28 1010.09 1009.96 1009.70 1009.56 1009.18 1008.87 1008.38 1007.89 1007.43 1007.07 1006.68 1006.08 1005.59 1005.28 1005.11 1005.15 1005.17 1004.73
1010.32 1010.40 1010.40 1010.20 1010.23 1009.83 1009.54 1009.37 1008.97 1008.41 1007.87 1007.36 1006.86 1006.40 1005.98 1005.49 1004.97 1004.51 1004.17 1004.11 1003.91 1003.68
1010.51 1010.32 1010.09 1010.05 1009.98 1009.63 1009.50 1009.01 1008.44 1008.05 1007.56 1007.03 1006.57 1006.10 1005.68 1005.15 1004.59 1004.05 1003.58 1003.33 1002.99 1002.89
1010.23 1010.05 1009.79 1009.72 1009.69 1009.47 1009.05 1008.57 1008.14 1007.65 1007.15 1006.70 1006.24 1005.68 1005.17 1004.90 1004.44 1003.95 1003.50 1003.18 1002.73 1002.20
1009.96 1009.87 1009.90 1009.66 1009.29 1008.94 1008.60 1008.18 1007.86 1007.47 1007.07 1006.64 1006.12 1005.55 1005.52 1005.49 1004.87 1004.39 1003.96 1003.27 1002.81 1002.28
1010.07 1009.87 1009.65 1009.44 1009.14 1008.76 1008.35 1008.12 1007.93 1007.59 1007.03 1006.32 1005.81 1005.48 1005.29 1005.18 1004.64 1003.96 1003.41 1002.86 1002.28 1001.41
1010.11 1010.01 1009.72 1009.25 1008.74 1008.38 1008.10 1007.92 1007.52 1007.02 1006.57 1005.94 1005.40 1005.11 1004.77 1004.53 1003.93 1003.02 1002.64 1002.06 1001.30 1000.56
1010.24 1009.74 1009.26 1008.83 1008.38 1007.97 1007.58 1007.25 1006.78 1006.25 1005.66 1005.07 1004.36 1004.16 1003.98 1003.74 1002.81 1002.04 1001.53 1000.80 1000.30 999.70
1009.76 1009.31 1008.83 1008.41 1007.91 1007.35 1006.85 1006.40 1005.97 1005.33 1004.75 1004.02 1003.56 1003.13 1002.90 1002.81 1002.16 1001.08 1000.51 999.77 998.98 998.44
1009.32 1008.95 1008.44 1007.80 1007.09 1006.48 1005.91 1005.46 1004.71 1004.26 1003.74 1003.02 1002.42 1001.88 1001.63 1001.43 1001.17 1000.39 999.66 998.77 998.19 998.15
Wind_Speed
6 4 4 4 6 7 8 9 9 10 11 13 14 14 12 11 12 11 11 14 12 11
7 7 6 6 7 7 9 9 12 13 14 15 16 16 14 13 13 12 12 13 12 12
6 7 7 7 9 10 10 11 12 13 14 15 16 16 15 15 15 14 13 12 14 13
8 9 9 10 11 12 12 13 14 15 15 16 16 17 16 18 19 19 16 16 17 17
10 11 11 12 13 14 15 15 16 17 17 18 18 18 19 20 20 21 21 20 20 21
12 13 13 14 14 15 15 16 17 17 18 19 19 20 20 21 22 21 21 22 21 21
13 13 13 14 14 14 15 15 15 16 17 18 18 19 20 21 22 21 21 20 21 22
14 14 14 14 14 14 14 14 15 16 17 17 16 14 17 16 17 19 21 21 22 21
14 14 14 14 14 14 15 15 15 16 17 18 13 16 12 12 15 16 17 18 20 21
13 13 14 14 15 14 15 15 15 17 17 17 16 15 12 14 17 17 16 19 18 19
14 14 14 14 15 15 14 13 14 14 15 16 14 18 16 20 20 19 17 18 19 20
13 14 14 15 15 15 14 14 14 16 16 18 18 19 17 16 16 16 15 18 15 19
14 14 15 16 16 15 15 14 12 14 16 19 18 19 16 17 12 16 13 16 17 17
15 15 15 15 14 14 12 14 14 14 14 17 16 17 18 19 15 13 12 12 10 4
Wind_Direction
25 342 314 295 310 287 284 281 292 285 273 259 257 249 247 241 237 243 237 243 248 263
23 16 360 334 318 290 292 279 267 269 265 266 262 254 249 243 247 240 238 242 241 247
346 337 327 312 295 288 285 282 283 282 276 270 263 259 252 249 245 242 245 247 246 241
320 311 302 294 286 285 288 282 278 276 273 270 268 262 255 253 258 258 247 242 250 251
307 303 294 293 293 289 286 284 281 279 275 272 268 266 263 260 255 252 246 245 248 251
306 300 293 290 287 288 287 282 277 277 277 276 275 271 266 262 261 261 258 257 255 252
296 296 296 294 289 287 284 286 288 286 284 282 278 274 271 270 268 267 265 265 261 258
298 296 296 294 292 291 288 287 290 289 286 283 279 273 273 277 279 277 275 272 271 266
304 301 298 297 299 302 300 299 298 295 292 293 285 295 305 290 283 282 283 280 277 280
308 308 310 312 305 298 295 296 294 291 289 285 285 279 272 274 277 273 272 273 268 270
325 313 305 299 296 297 293 293 286 283 280 282 282 285 276 269 271 270 266 267 269 269
308 304 304 299 296 293 291 286 283 283 281 275 279 273 268 267 274 266 266 267 268 266
303 301 303 304 299 290 286 278 273 273 274 273 275 272 265 264 270 266 266 267 259 261
314 308 296 288 288 287 283 276 277 279 276 281 274 274 260 252 260 266 265 264 270 294